Weather History for McCall, ID

Change the Weather History Date:

Thursday, July 18, 2013

  Actual Average Record
Temperature  
Mean Temperature 70 °F 62 °F  
Max Temperature 87 °F 79 °F 95 °F (1998)
Min Temperature 52 °F 44 °F 30 °F (1993)
Degree Days  
Heating Degree Days 0 4  
Month to date heating degree days 11 103  
Since 1 June heating degree days 274 470  
Since 1 July heating degree days 11 103  
Cooling Degree Days 5 1  
Month to date cooling degree days 61 3  
Year to date cooling degree days 83 4  
Since 1 June cooling degree days 83 4  
Growing Degree Days 20 (Base 50)    
Moisture  
Dew Point 38 °F    
Average Humidity 38    
Maximum Humidity 66    
Minimum Humidity 10    
Precipitation  
Precipitation 0.00 in 0.01 in 1.15 in (1976)
Month to date precipitation T 0.49  
Year to date precipitation 11.25 12.13  
Sea Level Pressure  
Sea Level Pressure 30.06 in    
Wind  
Wind Speed 5 mph (North)    
Max Wind Speed 13 mph    
Max Gust Speed 20 mph    
Visibility 10 miles    
Events      
T = Trace of Precipitation, MM = Missing Value Source: NWS Daily Summary

Daily Weather History Graph

Daily Weather History Graph

Search for Another Location

Airport:

Trip Planner

Search our weather history database for the weather conditions in past years. The results will help you decide how hot, cold, wet, or windy it might be!

Date:

Astronomy

Jul. 18, 2013 Rise Set
Actual Time 6:15 AM MDT 9:25 PM MDT
Civil Twilight 5:40 AM MDT 10:00 PM MDT
Nautical Twilight 4:54 AM MDT 10:46 PM MDT
Astronomical Twilight 3:58 AM MDT 11:41 PM MDT
Moon 5:25 PM MDT (7/18) 2:11 AM MDT (7/18)
Length of Visible Light 16h 20m
Length of Day
15h 09m
Waxing Gibbous, 78% of the Moon is Illuminated
Jul 18
Waxing Gibbous
Jul 22
Full
Jul 29
Last Quarter
Aug 6
New
Aug 14
First Quarter

Hourly Weather History & Observations

Time (MDT) Temp. Dew Point Humidity Pressure Visibility Wind Dir Wind Speed Gust Speed Precip Events Conditions
12:51 AM 68.0 °F 45.0 °F 43% 30.06 in 10.0 mi North 6.9 mph - N/A   Clear
1:51 AM 66.0 °F 44.1 °F 45% 30.06 in 10.0 mi NNE 5.8 mph - N/A   Clear
2:51 AM 66.0 °F 44.1 °F 45% 30.06 in 10.0 mi NNE 6.9 mph - N/A   Clear
3:51 AM 64.0 °F 44.1 °F 48% 30.06 in 10.0 mi North 4.6 mph - N/A   Clear
4:51 AM 64.0 °F 44.1 °F 48% 30.07 in 10.0 mi North 8.1 mph - N/A   Clear
5:51 AM 63.0 °F 44.1 °F 50% 30.07 in 10.0 mi NNE 6.9 mph - N/A   Clear
6:51 AM 55.0 °F 45.0 °F 69% 30.11 in 10.0 mi Calm Calm - N/A   Clear
7:51 AM 59.0 °F 46.0 °F 62% 30.12 in 10.0 mi Calm Calm - N/A   Clear
8:51 AM 64.9 °F 48.0 °F 54% 30.12 in 10.0 mi Calm Calm - N/A   Clear
9:51 AM 73.0 °F 46.0 °F 38% 30.12 in 10.0 mi Calm Calm - N/A   Clear
10:51 AM 75.9 °F 43.0 °F 31% 30.10 in 10.0 mi Variable 3.5 mph - N/A   Clear
11:51 AM 78.1 °F 39.9 °F 25% 30.10 in 10.0 mi Variable 4.6 mph - N/A   Clear
12:51 PM 82.0 °F 30.9 °F 16% 30.08 in 10.0 mi Variable 3.5 mph - N/A   Clear
1:51 PM 82.9 °F 32.0 °F 16% 30.08 in 10.0 mi Calm Calm - N/A   Clear
2:51 PM 86.0 °F 25.0 °F 11% 30.06 in 10.0 mi WNW 9.2 mph - N/A   Clear
3:51 PM 84.0 °F 25.0 °F 12% 30.05 in 10.0 mi Calm Calm - N/A   Clear
4:51 PM 86.0 °F 27.0 °F 12% 30.02 in 10.0 mi NW 6.9 mph - N/A   Clear
5:51 PM 86.0 °F 28.0 °F 12% 30.01 in 10.0 mi WNW 11.5 mph 18.4 mph N/A   Clear
6:51 PM 84.9 °F 30.0 °F 14% 30.01 in 10.0 mi NW 8.1 mph - N/A   Clear
7:51 PM 82.9 °F 30.9 °F 15% 30.01 in 10.0 mi West 5.8 mph - N/A   Clear
8:51 PM 81.0 °F 34.0 °F 18% 30.01 in 10.0 mi North 6.9 mph - N/A   Clear
9:51 PM 75.0 °F 35.1 °F 23% 30.01 in 10.0 mi NNE 5.8 mph - N/A   Clear
10:51 PM 71.1 °F 41.0 °F 34% 30.03 in 10.0 mi North 6.9 mph - N/A   Clear
11:51 PM 70.0 °F 39.0 °F 32% 30.03 in 10.0 mi NNE 6.9 mph - N/A   Clear